STARLINK-34855

Last updated on Tue Sep 16 2025 00:02:07 GMT+0000 (Coordinated Universal Time)

1 65416U 25192N 25258.58341435 -.01478029 00000+0 -15578-1 0 9995 2 65416 53.1595 338.0983 0001222 68.6148 170.6686 15.66411176 3629
UTC large
Height (km)
Speed (km/s)
/
Latitude / Longitude
Inclination (degrees)
Orbital Period (minutes)
Azimuth
Elevation
Range (km)
Doppler Factor

Next 0 passes for location: London (51.5072 / 0.1276)

Sorry there are no passes over London.